Time,TemperatureF,DewpointF,PressureIn,WindDirection,WindDirectionDegrees,WindSpeedMPH,WindSpeedGustMPH,Humidity,HourlyPrecipIn,Conditions,Clouds,dailyrainin,SoftwareType,DateUTC
2013-02-02 00:03:00,45.0,36.0,30.29,NNE,15,0.0,0.0,71,0.00,,,0.00,,2013-02-02 05:03:00,
2013-02-02 00:12:00,45.0,36.0,30.29,NNE,15,0.0,0.0,71,0.00,,,0.00,,2013-02-02 05:12:00,
2013-02-02 00:22:00,45.0,36.0,30.28,NNE,15,0.0,0.0,71,0.00,,,0.00,,2013-02-02 05:22:00,
2013-02-02 00:33:00,45.0,37.0,30.28,NNE,15,0.0,0.0,73,0.00,,,0.00,,2013-02-02 05:33:00,
2013-02-02 00:41:00,45.0,37.0,30.28,NNE,15,0.0,0.0,73,0.00,,,0.00,,2013-02-02 05:41:00,
2013-02-02 00:52:00,44.0,36.0,30.28,NNE,14,0.0,0.0,74,0.00,,,0.00,,2013-02-02 05:52:00,
2013-02-02 01:02:00,44.0,36.0,30.28,NNE,14,0.0,0.0,74,0.00,,,0.00,,2013-02-02 06:02:00,
2013-02-02 01:12:00,44.0,36.0,30.28,NNE,14,0.0,0.0,74,0.00,,,0.00,,2013-02-02 06:12:00,
2013-02-02 01:22:00,45.0,37.0,30.27,NNE,14,0.0,0.0,73,0.00,,,0.00,,2013-02-02 06:22:00,
2013-02-02 01:32:00,46.0,37.0,30.28,NNE,14,0.0,0.0,71,0.00,,,0.00,,2013-02-02 06:32:00,
2013-02-02 01:42:00,46.0,37.0,30.28,NNE,14,0.0,0.0,71,0.00,,,0.00,,2013-02-02 06:42:00,
2013-02-02 01:52:00,45.0,36.0,30.28,NNE,15,0.0,0.0,71,0.00,,,0.00,,2013-02-02 06:52:00,
2013-02-02 02:02:00,46.0,36.0,30.28,NNE,15,0.0,0.0,69,0.00,,,0.00,,2013-02-02 07:02:00,
2013-02-02 02:12:00,46.0,36.0,30.27,NNE,15,0.0,0.0,68,0.00,,,0.00,,2013-02-02 07:12:00,
2013-02-02 02:21:00,46.0,36.0,30.27,NNE,15,0.0,0.0,68,0.00,,,0.00,,2013-02-02 07:21:00,
2013-02-02 02:32:00,46.0,36.0,30.27,NNE,14,0.0,0.0,69,0.00,,,0.00,,2013-02-02 07:32:00,
2013-02-02 02:42:00,46.0,36.0,30.27,NNE,14,0.0,0.0,69,0.00,,,0.00,,2013-02-02 07:42:00,
2013-02-02 02:52:00,46.0,37.0,30.27,NNE,15,0.0,0.0,70,0.00,,,0.00,,2013-02-02 07:52:00,
2013-02-02 03:01:00,46.0,37.0,30.27,NNE,15,0.0,0.0,71,0.00,,,0.00,,2013-02-02 08:01:00,
2013-02-02 03:11:00,46.0,37.0,30.27,NNE,15,0.0,0.0,71,0.00,,,0.00,,2013-02-02 08:11:00,
2013-02-02 03:21:00,46.0,38.0,30.26,NNE,15,0.0,0.0,73,0.00,,,0.00,,2013-02-02 08:21:00,
2013-02-02 03:31:00,45.0,37.0,30.27,NNE,15,0.0,0.0,74,0.00,,,0.00,,2013-02-02 08:31:00,
2013-02-02 03:41:00,45.0,37.0,30.27,NNE,15,0.0,0.0,74,0.00,,,0.00,,2013-02-02 08:41:00,
2013-02-02 03:53:00,45.0,38.0,30.27,NNE,14,0.0,0.0,75,0.00,,,0.00,,2013-02-02 08:53:00,
2013-02-02 04:01:00,44.0,38.0,30.27,NNE,14,0.0,0.0,78,0.00,,,0.00,,2013-02-02 09:01:00,
2013-02-02 04:11:00,44.0,38.0,30.27,NNE,14,0.0,0.0,78,0.00,,,0.00,,2013-02-02 09:11:00,
2013-02-02 04:22:00,43.0,38.0,30.27,NNE,14,0.0,0.0,81,0.00,,,0.00,,2013-02-02 09:22:00,
2013-02-02 04:32:00,44.0,39.0,30.27,NNE,14,0.0,0.0,82,0.00,,,0.00,,2013-02-02 09:32:00,
2013-02-02 04:42:00,44.0,39.0,30.27,NNE,14,0.0,0.0,82,0.00,,,0.00,,2013-02-02 09:42:00,
2013-02-02 04:52:00,44.0,39.0,30.27,NNE,14,0.0,0.0,82,0.00,,,0.00,,2013-02-02 09:52:00,
2013-02-02 05:02:00,45.0,40.0,30.27,NNE,14,0.0,0.0,83,0.00,,,0.00,,2013-02-02 10:02:00,
2013-02-02 05:11:00,45.0,40.0,30.26,NNE,15,0.0,1.0,83,0.00,,,0.00,,2013-02-02 10:11:00,
2013-02-02 05:21:00,45.0,40.0,30.26,NNE,15,0.0,1.0,83,0.00,,,0.00,,2013-02-02 10:21:00,
2013-02-02 05:32:00,45.0,40.0,30.26,NNE,14,0.0,3.0,83,0.00,,,0.00,,2013-02-02 10:32:00,
2013-02-02 05:42:00,45.0,40.0,30.26,NNE,14,0.0,3.0,83,0.00,,,0.00,,2013-02-02 10:42:00,
2013-02-02 05:52:00,45.0,40.0,30.27,NNE,14,0.0,1.0,82,0.00,,,0.00,,2013-02-02 10:52:00,
2013-02-02 06:02:00,45.0,40.0,30.27,NNE,14,0.0,1.0,82,0.00,,,0.00,,2013-02-02 11:02:00,
2013-02-02 06:11:00,45.0,40.0,30.27,NNE,14,0.0,0.0,82,0.00,,,0.00,,2013-02-02 11:11:00,
2013-02-02 06:22:00,45.0,40.0,30.27,NNE,14,0.0,0.0,82,0.00,,,0.00,,2013-02-02 11:22:00,
2013-02-02 06:32:00,44.0,39.0,30.27,NNE,14,0.0,0.0,83,0.00,,,0.00,,2013-02-02 11:32:00,
2013-02-02 06:42:00,44.0,39.0,30.27,NNE,14,0.0,0.0,83,0.00,,,0.00,,2013-02-02 11:42:00,
2013-02-02 06:52:00,44.0,39.0,30.28,NNE,14,0.0,0.0,83,0.00,,,0.00,,2013-02-02 11:52:00,
2013-02-02 07:02:00,43.0,38.0,30.28,NNE,14,0.0,0.0,83,0.00,,,0.00,,2013-02-02 12:02:00,
2013-02-02 07:11:00,43.0,38.0,30.28,NNE,14,0.0,0.0,83,0.00,,,0.00,,2013-02-02 12:11:00,
2013-02-02 07:22:00,43.0,38.0,30.28,NNE,14,0.0,0.0,84,0.00,,,0.00,,2013-02-02 12:22:00,
2013-02-02 07:32:00,42.0,38.0,30.29,NNE,14,0.0,0.0,84,0.00,,,0.00,,2013-02-02 12:32:00,
2013-02-02 07:42:00,42.0,38.0,30.29,NNE,14,0.0,0.0,84,0.00,,,0.00,,2013-02-02 12:42:00,
2013-02-02 07:52:00,42.0,38.0,30.29,NNE,14,0.0,0.0,85,0.00,,,0.00,,2013-02-02 12:52:00,
2013-02-02 08:03:00,44.0,40.0,30.29,NNE,14,0.0,0.0,85,0.00,,,0.00,,2013-02-02 13:03:00,
2013-02-02 08:11:00,44.0,40.0,30.29,NNE,14,0.0,0.0,85,0.00,,,0.00,,2013-02-02 13:11:00,
2013-02-02 08:22:00,46.0,41.0,30.29,NNE,14,2.0,5.0,83,0.00,,,0.00,,2013-02-02 13:22:00,
2013-02-02 08:32:00,48.0,42.0,30.29,NNE,14,2.0,6.0,81,0.00,,,0.00,,2013-02-02 13:32:00,
2013-02-02 08:42:00,48.0,42.0,30.29,NNE,14,2.0,6.0,81,0.00,,,0.00,,2013-02-02 13:42:00,
2013-02-02 08:52:00,51.0,44.0,30.29,NNE,14,3.0,7.0,77,0.00,,,0.00,,2013-02-02 13:52:00,
2013-02-02 09:02:00,53.0,45.0,30.29,NNE,14,3.0,7.0,73,0.00,,,0.00,,2013-02-02 14:02:00,
2013-02-02 09:11:00,53.0,45.0,30.29,NNE,14,3.0,7.0,73,0.00,,,0.00,,2013-02-02 14:11:00,
2013-02-02 09:22:00,56.0,46.0,30.29,NNE,14,1.0,6.0,69,0.00,,,0.00,,2013-02-02 14:22:00,
2013-02-02 09:32:00,57.0,45.0,30.29,NNE,14,4.0,8.0,64,0.00,,,0.00,,2013-02-02 14:32:00,
2013-02-02 09:52:00,59.0,46.0,30.29,NNE,14,3.0,8.0,61,0.00,,,0.00,,2013-02-02 14:52:00,
2013-02-02 10:03:00,61.0,46.0,30.29,NNE,15,5.0,10.0,57,0.00,,,0.00,,2013-02-02 15:03:00,
2013-02-02 10:22:00,63.0,47.0,30.29,NNE,15,4.0,8.0,55,0.00,,,0.00,,2013-02-02 15:22:00,
2013-02-02 10:32:00,63.0,44.0,30.29,NNE,15,6.0,11.0,49,0.00,,,0.00,,2013-02-02 15:32:00,
2013-02-02 10:52:00,65.0,44.0,30.29,NNE,14,1.0,11.0,46,0.00,,,0.00,,2013-02-02 15:52:00,
2013-02-02 11:03:00,65.0,42.0,30.28,NNE,15,6.0,10.0,43,0.00,,,0.00,,2013-02-02 16:03:00,
2013-02-02 11:12:00,65.0,42.0,30.28,NNE,15,6.0,10.0,43,0.00,,,0.00,,2013-02-02 16:12:00,
2013-02-02 11:22:00,67.0,43.0,30.27,NNE,14,4.0,11.0,41,0.00,,,0.00,,2013-02-02 16:22:00,
2013-02-02 11:32:00,68.0,42.0,30.27,NNE,15,6.0,12.0,39,0.00,,,0.00,,2013-02-02 16:32:00,
2013-02-02 11:42:00,68.0,42.0,30.27,NNE,15,6.0,12.0,39,0.00,,,0.00,,2013-02-02 16:42:00,
2013-02-02 11:52:00,69.0,44.0,30.26,NNE,15,0.0,9.0,41,0.00,,,0.00,,2013-02-02 16:52:00,
2013-02-02 12:03:00,70.0,45.0,30.25,NNE,15,1.0,7.0,41,0.00,,,0.00,,2013-02-02 17:03:00,
2013-02-02 12:11:00,70.0,45.0,30.25,NNE,15,1.0,7.0,41,0.00,,,0.00,,2013-02-02 17:11:00,
2013-02-02 12:22:00,70.0,45.0,30.24,NNE,15,5.0,7.0,40,0.00,,,0.00,,2013-02-02 17:22:00,
2013-02-02 12:32:00,70.0,46.0,30.23,NNE,15,2.0,9.0,42,0.00,,,0.00,,2013-02-02 17:32:00,
2013-02-02 12:42:00,70.0,46.0,30.23,NNE,15,2.0,9.0,42,0.00,,,0.00,,2013-02-02 17:42:00,
2013-02-02 12:53:00,71.0,46.0,30.23,SSW,211,1.0,9.0,41,0.00,,,0.00,,2013-02-02 17:53:00,
2013-02-02 13:02:00,72.0,47.0,30.22,South,188,3.0,10.0,41,0.00,,,0.00,,2013-02-02 18:02:00,
2013-02-02 13:12:00,72.0,47.0,30.22,South,188,3.0,10.0,41,0.00,,,0.00,,2013-02-02 18:12:00,
2013-02-02 13:22:00,72.0,46.0,30.21,East,80,2.0,10.0,40,0.00,,,0.00,,2013-02-02 18:22:00,
2013-02-02 13:32:00,73.0,47.0,30.20,SSW,212,1.0,7.0,40,0.00,,,0.00,,2013-02-02 18:32:00,
2013-02-02 13:42:00,73.0,47.0,30.20,SSW,212,1.0,7.0,40,0.00,,,0.00,,2013-02-02 18:42:00,
2013-02-02 13:52:00,73.0,47.0,30.20,SSE,158,0.0,7.0,39,0.00,,,0.00,,2013-02-02 18:52:00,
2013-02-02 14:02:00,73.0,47.0,30.20,SSE,158,0.0,7.0,39,0.00,,,0.00,,2013-02-02 19:02:00,
2013-02-02 14:12:00,73.0,47.0,30.20,SSE,158,0.0,7.0,39,0.00,,,0.00,,2013-02-02 19:12:00,
2013-02-02 14:21:00,73.0,47.0,30.20,SSE,158,0.0,7.0,39,0.00,,,0.00,,2013-02-02 19:21:00,
2013-02-02 19:32:00,64.0,50.0,30.16,NNW,328,0.0,0.0,60,0.00,,,0.00,,2013-02-03 00:32:00,
2013-02-02 19:42:00,64.0,50.0,30.16,NNW,328,0.0,0.0,60,0.00,,,0.00,,2013-02-03 00:42:00,
2013-02-02 19:52:00,63.0,50.0,30.16,NNW,328,0.0,0.0,62,0.00,,,0.00,,2013-02-03 00:52:00,
2013-02-02 20:02:00,63.0,51.0,30.17,NNW,328,0.0,0.0,64,0.00,,,0.00,,2013-02-03 01:02:00,
2013-02-02 20:11:00,62.0,51.0,30.17,NNW,328,0.0,0.0,67,0.00,,,0.00,,2013-02-03 01:11:00,
2013-02-02 20:21:00,62.0,51.0,30.17,NNW,328,0.0,0.0,67,0.00,,,0.00,,2013-02-03 01:21:00,
2013-02-02 20:32:00,62.0,52.0,30.17,NNW,328,0.0,0.0,69,0.00,,,0.00,,2013-02-03 01:32:00,
2013-02-02 20:42:00,62.0,52.0,30.17,NNW,328,0.0,0.0,69,0.00,,,0.00,,2013-02-03 01:42:00,
2013-02-02 20:52:00,61.0,51.0,30.18,NNW,328,0.0,0.0,70,0.00,,,0.00,,2013-02-03 01:52:00,
2013-02-02 21:01:00,61.0,52.0,30.18,NNW,328,0.0,0.0,72,0.00,,,0.00,,2013-02-03 02:01:00,
2013-02-02 21:11:00,61.0,52.0,30.18,NNW,328,0.0,0.0,72,0.00,,,0.00,,2013-02-03 02:11:00,
2013-02-02 21:21:00,60.0,51.0,30.18,NNW,328,0.0,0.0,72,0.00,,,0.00,,2013-02-03 02:21:00,
2013-02-02 21:32:00,59.0,50.0,30.18,NNW,328,0.0,0.0,73,0.00,,,0.00,,2013-02-03 02:32:00,
2013-02-02 21:42:00,59.0,50.0,30.18,NNW,328,0.0,0.0,73,0.00,,,0.00,,2013-02-03 02:42:00,
2013-02-02 21:52:00,58.0,50.0,30.18,NNW,328,0.0,0.0,74,0.00,,,0.00,,2013-02-03 02:52:00,
2013-02-02 22:02:00,57.0,50.0,30.17,NNW,328,0.0,0.0,77,0.00,,,0.00,,2013-02-03 03:02:00,
2013-02-02 22:11:00,56.0,50.0,30.17,NNW,328,0.0,0.0,79,0.00,,,0.00,,2013-02-03 03:11:00,
2013-02-02 22:22:00,56.0,50.0,30.17,NNW,328,0.0,0.0,79,0.00,,,0.00,,2013-02-03 03:22:00,
2013-02-02 22:32:00,55.0,49.0,30.18,NNW,328,0.0,0.0,80,0.00,,,0.00,,2013-02-03 03:32:00,
2013-02-02 22:42:00,55.0,49.0,30.18,NNW,328,0.0,0.0,80,0.00,,,0.00,,2013-02-03 03:42:00,
2013-02-02 22:52:00,55.0,49.0,30.17,NNW,328,0.0,0.0,81,0.00,,,0.00,,2013-02-03 03:52:00,
2013-02-02 23:01:00,54.0,48.0,30.17,NNW,328,0.0,0.0,81,0.00,,,0.00,,2013-02-03 04:01:00,
2013-02-02 23:11:00,54.0,49.0,30.17,NNW,328,0.0,0.0,82,0.00,,,0.00,,2013-02-03 04:11:00,
2013-02-02 23:21:00,54.0,49.0,30.17,NNW,328,0.0,0.0,82,0.00,,,0.00,,2013-02-03 04:21:00,
2013-02-02 23:32:00,53.0,48.0,30.17,NNW,328,0.0,0.0,83,0.00,,,0.00,,2013-02-03 04:32:00,
2013-02-02 23:42:00,53.0,48.0,30.17,NNW,328,0.0,0.0,83,0.00,,,0.00,,2013-02-03 04:42:00,
2013-02-02 23:52:00,52.0,47.0,30.16,NNW,328,0.0,0.0,83,0.00,,,0.00,,2013-02-03 04:52:00,